Home > Weather > Kassel > Past weeks

Flag for Germany Weather for the Past 2 Weeks in Kassel, Hesse, Germany

Now
61 °F

Passing clouds.


Feels Like: 61 °F
Forecast: 36 / 66 °F
Wind: 12 mph from Northeast

Location: Kassel / Calden

Current Time: May 1, 2016 at 4:28:15 PM

Latest Report: May 1, 2016 at 3:50 PM


Visibility: N/A

Pressure: 30.21 "Hg

Humidity: 48%

Dew Point: 41 °F

Location of KasselLocation

Historic Weather in Kassel — Graph

°F

Kassel Temperature Yesterday

Maximum temperature yesterday: 57 °F (at 12:50 PM)
Minimum temperature yesterday: 39 °F (at 7:20 AM)
Average temperature yesterday: 49 °F

High & Low Weather Summary for the Past Weeks

 TemperatureHumidityPressure
High63 °F (Apr 21, 4:20 PM)100% (Apr 20, 6:50 AM)30.45 "Hg (Apr 20, 6:50 AM)
Low32 °F (Apr 24, 7:20 PM)32% (Apr 21, 5:20 PM)29.45 "Hg (Apr 26, 1:20 PM)
Average46 °F65%29.96 "Hg
* Reported Apr 16 2:20 PM — May 1 2:50 PM, Kassel, Weather by CustomWeather, © 2016

Note: Actual official high and low records may vary slightly from our data, if they occured in-between our weather recording intervals... More about our weather records

Advertising

Kassel Weather History for the Previous 24 Hours

Scroll right to see more
 ConditionsComfort  
Time TempWeatherWind HumidityBarometerVisibility
2:50 PM
Sun, May 1
59 °FPassing clouds.9 mph51%30.21 "HgN/A
2:20 PM59 °FPassing clouds.12 mph51%30.21 "HgN/A
1:50 PM57 °FPassing clouds.13 mph55%30.21 "HgN/A
1:20 PM55 °FPassing clouds.13 mph63%30.21 "HgN/A
12:50 PM54 °FPassing clouds.13 mph63%30.21 "HgN/A
12:20 PM54 °FPassing clouds.14 mph63%30.21 "HgN/A
11:50 AM52 °FPassing clouds.15 mph62%30.21 "HgN/A
11:20 AM52 °FPassing clouds.12 mph72%30.21 "HgN/A
10:20 AM48 °FBroken clouds.14 mph76%30.21 "HgN/A
9:50 AM46 °FPartly sunny.15 mph82%30.18 "HgN/A
8:50 AM45 °FPartly sunny.16 mph87%30.18 "HgN/A
8:20 AM45 °FPartly sunny.13 mph87%30.18 "HgN/A
7:50 AM43 °FPartly sunny.12 mph93%30.18 "HgN/A
7:20 AM41 °FPartly sunny.12 mph100%30.18 "HgN/A
9:20 PM
Sat, Apr 30
43 °FSunny.12 mph81%30.09 "Hg10 mi
7:50 PM46 °FSunny.12 mph76%30.09 "Hg10 mi
7:20 PM46 °FPassing clouds.13 mph76%30.07 "HgN/A
6:50 PM46 °FPassing clouds.13 mph76%30.07 "HgN/A
6:20 PM46 °FPassing clouds.13 mph76%30.07 "HgN/A
5:50 PM48 °FSunny.14 mph76%30.07 "Hg10 mi
5:20 PM48 °FSunny.15 mph76%30.07 "Hg10 mi
4:50 PM48 °FSunny.13 mph76%30.07 "Hg10 mi
4:20 PM48 °FSunny.13 mph76%30.07 "Hg10 mi
Weather by CustomWeather, © 2016

See weather overviewHow to use our weather pages